Theta_e
352 352 352 351 351 351 351 351 352 354 354 353 352 354 352 350 352 354 354 353 351 348 345 344 345 341 340 338 334 332 332 332 332 328 326 323 316 316 316 314 315 315 315
351 351 352 353 353 352 351 352 353 355 356 355 354 355 354 351 355 351 345 349 349 348 345 344 346 341 338 337 334 334 333 331 327 327 323 314 314 316 314 314 314 314 314
353 353 353 353 353 353 353 354 355 356 355 356 356 356 356 354 352 335 341 335 345 343 348 346 344 339 340 336 335 333 330 328 325 319 314 313 313 312 312 312 313 313 317
354 354 353 353 353 353 354 355 356 356 356 356 356 357 359 354 350 345 337 335 343 348 346 344 342 341 338 335 333 330 327 321 315 314 313 313 311 310 311 312 312 316 317
354 354 354 354 355 355 356 356 356 357 357 357 356 357 358 354 352 346 337 344 347 347 344 342 339 334 332 330 329 324 317 314 313 312 313 312 311 311 311 311 312 316 315
353 353 354 355 355 356 356 356 357 357 358 358 358 359 357 356 353 349 350 348 348 344 337 334 332 331 328 326 314 309 309 312 312 313 312 312 311 311 311 311 312 314 315
351 353 354 355 355 356 356 356 357 358 359 361 358 358 358 354 353 351 348 348 345 343 335 333 329 325 321 312 309 309 309 307 307 310 312 312 312 312 312 312 311 312 315
350 351 353 354 354 355 356 357 358 360 360 356 354 357 356 352 350 347 346 345 342 337 334 331 326 316 309 310 312 311 310 310 309 309 310 310 310 309 310 310 310 316 315
349 350 351 352 354 355 357 358 360 359 357 356 355 352 352 349 346 345 344 340 337 333 329 326 315 309 308 307 311 311 311 310 308 307 306 306 306 306 307 313 315 315 314
349 349 351 352 354 356 359 358 358 357 355 354 352 350 348 346 345 345 339 333 327 321 312 309 308 308 308 307 311 311 310 309 309 310 310 310 310 309 310 313 314 313 312
349 351 354 356 358 360 358 356 356 354 353 351 348 345 343 344 343 340 337 328 321 317 314 311 309 308 307 307 306 307 306 307 309 309 309 308 308 308 312 313 313 313 312
357 358 359 359 358 356 356 354 353 351 346 341 339 335 335 337 336 333 328 326 322 317 313 311 308 307 307 306 305 305 305 308 308 308 309 308 308 307 309 313 313 312 311
359 360 356 356 356 355 354 349 344 343 339 336 336 332 329 329 327 326 324 321 318 313 311 309 307 307 307 306 304 305 307 308 308 308 309 308 308 308 308 311 313 314 310
357 356 355 354 353 350 348 346 344 340 336 337 334 331 330 327 323 319 319 317 312 310 309 308 308 307 305 305 307 307 308 307 308 308 309 308 308 307 307 311 313 313 311
353 351 349 348 349 346 344 341 342 343 343 340 338 335 332 328 326 323 321 317 315 313 311 310 310 309 307 307 307 307 307 308 308 308 308 308 308 307 307 308 312 311 309
345 342 341 340 339 340 340 340 341 341 340 339 336 335 331 330 327 322 319 315 311 310 311 311 309 308 307 307 307 307 307 307 307 307 308 308 308 307 307 306 306 308 307
346 341 340 343 340 339 340 340 331 335 338 338 337 335 333 329 322 318 314 310 310 309 311 309 308 308 308 307 306 306 307 307 308 307 308 308 308 308 307 307 306 306 306
346 344 345 343 341 343 346 343 340 339 336 330 331 332 330 324 318 315 310 309 309 310 309 308 308 307 307 307 306 306 307 307 307 307 308 308 308 308 307 307 307 306 306
345 344 344 342 345 345 343 342 342 340 337 329 324 328 322 318 315 311 310 313 311 309 308 307 307 307 307 306 306 306 307 306 307 307 307 308 308 308 307 306 305 305 305
345 343 345 343 341 341 340 339 339 337 330 329 329 321 316 313 311 310 311 311 310 308 307 306 306 307 307 306 305 306 306 306 307 306 307 308 308 308 307 307 306 305 305
343 339 340 340 339 338 338 337 335 335 335 334 328 318 314 316 314 311 311 310 309 307 306 305 305 306 306 306 305 304 305 305 306 306 307 307 308 308 306 306 306 305 304
341 339 339 339 337 336 335 332 330 330 331 329 323 313 313 318 314 311 310 309 308 307 306 305 304 303 303 303 303 303 305 305 305 306 307 307 307 307 306 305 305 304 304
341 340 338 336 335 331 329 328 327 327 327 326 322 315 315 315 312 311 309 308 307 305 305 304 302 300 299 299 300 303 304 304 304 305 306 306 307 307 306 305 304 304 304
341 340 338 336 332 331 328 327 326 323 322 320 319 317 316 313 311 310 309 307 306 304 303 303 301 300 299 300 302 302 302 302 303 304 306 306 305 305 305 304 304 303 302
341 339 336 334 330 329 327 326 323 322 320 319 319 317 314 312 310 310 308 306 305 304 303 302 300 299 299 301 302 302 302 302 303 303 305 305 305 305 304 303 303 303 302
339 336 334 332 331 330 327 326 324 322 320 318 318 317 313 311 310 309 308 306 305 303 302 300 299 298 299 301 301 302 302 302 302 303 305 304 304 303 303 303 302 301 301
Wind_Speed
32 32 32 32 32 33 31 32 29 24 21 22 23 18 19 20 21 13 16 20 12 12 11 9 10 8 5 7 7 7 7 9 14 22 20 21 22 23 24 24 23 24 26
32 31 32 31 31 34 37 36 30 28 22 20 21 18 17 19 10 5 23 30 18 13 10 6 8 6 7 6 5 4 6 8 13 19 21 22 20 22 23 27 26 27 28
28 28 27 31 35 38 35 31 29 27 21 16 17 17 15 12 15 8 40 38 24 13 9 7 6 9 5 5 2 4 7 9 11 15 20 19 19 19 26 25 28 32 30
25 28 31 34 35 34 32 29 26 22 18 15 17 16 12 19 23 14 28 22 19 12 9 6 7 4 3 3 2 4 6 10 11 14 17 17 18 21 21 26 32 32 35
29 30 33 29 28 27 24 22 21 19 15 14 14 12 13 19 24 15 15 20 14 13 8 7 6 5 2 1 3 4 7 10 12 14 15 16 19 25 24 25 29 32 34
28 29 24 23 22 22 21 19 17 15 12 11 11 11 14 12 17 12 13 12 13 14 13 10 9 5 3 2 4 6 6 7 10 11 13 17 19 21 23 24 26 28 9
27 23 21 20 18 18 15 15 15 13 9 9 11 12 9 11 14 16 17 16 16 13 13 12 9 6 5 4 6 6 7 6 7 8 12 15 18 20 22 24 27 24 23
23 18 16 15 15 14 13 13 11 9 9 11 15 15 18 18 21 19 18 16 16 13 12 11 10 8 7 7 6 7 7 6 8 9 8 12 13 16 16 19 23 24 23
16 15 14 14 12 11 10 10 10 11 13 14 18 23 26 25 22 21 19 18 16 14 13 12 11 10 9 8 7 8 8 9 9 10 10 13 16 18 19 17 24 26 18
14 13 13 11 10 11 11 12 12 15 18 20 23 27 28 27 22 21 20 19 19 17 16 15 11 10 9 8 8 8 9 10 10 12 13 15 16 18 20 17 20 22 20
12 13 12 10 10 10 13 14 16 21 25 26 29 23 21 23 22 20 18 17 18 17 14 12 10 9 8 9 10 9 10 9 10 11 13 15 17 18 15 17 20 24 24
20 21 18 16 15 15 18 21 23 27 31 30 27 22 20 23 20 16 14 15 18 17 14 12 12 8 8 9 10 11 11 11 12 13 13 15 16 17 14 13 17 24 28
25 22 20 20 19 19 24 25 25 27 28 23 23 21 18 17 18 15 17 17 15 16 13 13 13 8 7 9 11 12 14 13 13 13 13 14 14 14 14 12 13 17 27
26 26 25 26 25 24 24 27 29 28 24 21 20 20 19 17 17 17 18 17 16 17 15 15 9 8 8 9 10 11 12 12 12 12 12 13 13 15 16 15 15 13 18
29 27 27 27 28 28 26 21 20 17 19 24 22 23 23 19 17 18 18 16 14 15 15 11 6 5 6 7 9 10 11 12 12 12 12 13 14 14 15 16 15 16 19
23 21 22 23 23 24 26 24 18 19 21 22 25 23 20 19 23 20 18 17 17 18 11 9 7 6 7 8 9 9 10 11 11 11 12 11 12 14 14 16 18 18 19
24 22 20 21 22 23 21 22 21 17 19 23 23 21 23 26 24 21 19 19 17 11 9 7 7 7 7 8 8 9 9 9 9 10 11 11 11 13 15 15 17 19 20
20 26 23 22 24 23 21 21 22 22 21 16 18 17 20 23 22 21 21 19 13 8 8 8 8 7 7 8 7 7 7 8 9 9 10 11 11 12 14 14 15 17 18
24 21 21 22 21 20 20 20 20 20 20 18 17 19 22 21 20 20 20 11 11 9 8 8 8 8 8 7 7 6 7 7 7 8 9 10 9 10 12 13 16 17 17
20 24 22 20 20 18 18 17 17 18 19 19 19 21 26 25 19 17 10 11 11 10 9 8 8 8 9 7 6 5 6 7 7 8 8 9 8 10 12 11 12 14 15
22 22 22 20 18 17 16 16 16 17 18 17 18 21 26 21 18 16 14 11 10 10 10 9 8 8 7 6 5 5 5 6 6 6 7 8 7 9 10 11 11 12 13
24 23 21 20 18 17 16 16 16 16 17 18 18 20 24 15 17 17 14 12 10 10 10 9 9 8 7 5 5 6 6 6 5 5 6 7 7 7 9 11 11 11 11
25 24 21 19 19 20 18 16 17 17 17 17 18 22 20 16 17 17 15 13 12 12 10 10 9 8 7 6 6 7 7 6 4 4 5 7 7 9 9 11 11 11 11
23 22 21 21 21 21 20 20 20 20 20 20 19 20 19 18 18 17 15 14 14 12 11 10 9 9 9 8 8 7 8 8 7 5 5 6 9 10 10 11 12 12 12
22 21 21 21 22 20 21 20 21 22 21 22 21 20 19 19 19 17 16 15 14 13 11 9 9 10 10 11 10 8 10 8 9 8 5 7 9 10 10 10 11 11 12
20 21 22 22 22 21 21 21 21 22 21 22 21 21 22 22 21 19 18 16 15 13 12 10 10 11 12 11 10 11 10 9 8 9 7 8 9 10 11 11 11 11 10
Wind_Direction
219 222 226 232 237 242 242 246 246 245 239 246 250 247 245 245 247 249 274 276 247 244 251 272 235 229 240 205 210 218 251 277 291 306 312 315 313 314 316 317 317 313 312
217 218 223 229 234 238 241 244 243 240 234 234 245 241 241 244 243 336 325 298 257 238 256 206 219 223 184 221 206 228 293 293 292 303 317 318 315 316 314 313 316 317 313
214 217 221 226 229 236 238 240 242 240 236 231 236 237 227 205 185 138 247 249 256 247 202 172 211 179 189 212 211 336 311 303 303 304 307 316 319 322 322 323 322 322 328
212 215 219 225 229 234 237 238 241 242 238 227 231 236 204 204 194 273 235 237 226 203 152 160 181 169 177 198 4 338 316 320 317 311 315 320 327 330 330 331 330 331 332
209 215 222 228 231 236 238 241 245 244 238 228 231 226 207 207 218 247 209 216 190 150 133 148 131 140 182 53 23 344 341 333 329 324 322 329 334 336 339 334 330 331 331
210 220 224 228 231 233 236 237 241 242 237 226 222 219 213 213 213 218 181 156 151 147 144 135 132 139 122 48 6 3 353 342 332 328 328 334 331 330 334 330 329 336 338
214 219 219 223 228 232 232 231 236 236 221 201 188 199 193 180 160 160 157 154 153 147 152 134 126 126 101 70 36 20 0 359 350 330 325 332 326 328 328 329 329 333 322
215 215 214 214 221 223 217 218 221 215 188 166 167 166 156 154 148 154 153 151 149 141 138 133 131 120 93 68 46 28 27 13 1 351 335 328 327 337 337 329 324 332 333
206 206 203 202 202 205 203 199 193 169 159 157 153 149 150 147 148 151 145 138 132 125 128 129 124 107 85 59 43 32 23 13 6 14 12 10 9 13 6 354 360 355 349
193 193 186 178 182 184 182 177 168 164 148 146 143 145 144 142 150 153 144 139 130 128 123 120 108 97 84 55 46 29 20 8 8 8 14 13 13 14 16 19 14 6 359
157 149 131 138 148 149 148 160 155 147 142 138 134 129 133 143 146 151 150 140 136 131 127 118 111 107 84 51 41 40 26 21 13 19 20 20 21 18 23 25 27 23 15
125 109 115 123 124 135 143 147 149 144 134 129 125 119 126 130 137 147 146 138 138 132 127 123 126 118 84 50 48 45 42 42 33 29 27 25 22 18 16 30 42 38 37
108 114 118 120 126 140 146 143 131 131 129 128 127 126 124 126 139 141 136 133 133 122 122 130 131 115 70 54 58 50 45 39 35 35 31 27 19 12 18 32 41 46 46
114 117 123 125 128 135 137 142 139 136 133 135 135 136 134 138 141 142 140 137 134 124 128 133 130 105 75 71 57 45 45 39 34 31 32 31 27 26 28 33 41 40 45
124 129 128 132 134 131 129 129 134 140 154 152 154 151 150 156 162 159 152 146 137 141 136 130 125 102 86 72 59 49 49 46 37 30 34 34 36 35 36 38 44 46 48
124 128 132 130 130 130 128 128 139 150 161 161 155 154 157 161 156 156 153 142 141 139 126 128 121 108 93 75 60 53 47 44 38 35 40 40 44 43 44 47 52 53 52
131 134 133 134 135 134 133 132 124 132 152 157 161 161 162 156 154 152 149 143 141 128 122 123 119 113 97 82 64 63 47 41 32 37 44 43 49 54 51 51 56 58 57
139 144 141 143 140 138 141 141 138 141 144 147 158 158 161 157 156 155 151 143 134 121 123 125 124 118 105 101 83 78 65 59 55 44 48 48 51 56 58 59 62 64 63
142 146 143 143 144 146 145 146 148 149 150 146 141 148 156 157 155 152 147 146 139 136 133 129 125 122 117 114 93 83 78 63 58 56 54 52 56 61 65 78 74 69 71
144 145 145 147 146 147 149 149 150 152 151 150 150 150 155 154 154 159 161 145 143 139 135 131 126 124 125 117 98 89 82 69 57 55 59 58 66 72 71 76 76 75 75
147 147 146 148 152 153 153 153 151 151 154 158 157 162 162 164 162 162 159 153 148 140 138 131 126 122 120 127 121 111 107 90 78 64 66 68 75 86 80 79 88 85 87
151 154 155 155 153 154 154 153 151 152 155 154 153 163 160 162 160 159 158 150 144 141 140 133 128 124 129 147 139 130 128 111 89 73 72 79 84 99 93 90 97 98 93
159 161 160 159 158 156 152 155 154 154 153 154 155 159 166 163 162 161 154 151 148 142 137 137 134 130 132 134 135 135 132 125 115 92 82 90 97 113 103 98 102 104 95
162 164 163 161 162 162 160 160 160 159 157 157 160 165 168 167 165 160 154 152 149 145 146 144 141 141 136 133 135 131 132 142 133 118 99 101 108 114 113 105 101 104 102
165 166 166 167 166 166 165 165 165 164 165 166 168 169 165 163 163 161 157 155 152 153 156 152 143 143 141 139 138 136 137 143 140 132 112 110 117 123 121 115 109 107 109
173 171 169 168 170 172 173 172 170 169 170 171 172 172 167 168 167 166 162 161 157 158 159 154 154 152 150 147 147 146 143 142 142 139 133 129 126 126 125 120 117 116 113